Location: Agus-us
(14.2247°N, 120.8593°E)
Time: 02:20:12
(UTC+00:00)

NOSS 2-1 (E) - Pass Details

Date: 13 December 2025
Orbit: 385 x 1749 km, 63.3° (Epoch: 7 May)

Event Time Altitude Azimuth Distance (km) Brightness Sun altitude
Exits shadow 21:19:12 - 337° (NNW) 2,324 6.1 -12.7°
Reaches altitude 10° 21:19:39 10° 337° (NNW) 2,152 5.9 -12.6°
Maximum altitude 21:24:36 84° 65° (ENE) 885 4.3 -11.5°
Drops below altitude 10° 21:31:42 10° 155° (SSE) 3,043 7.8 -9.9°
Sets 21:34:55 0° 155° (SSE) 4,217 8.6 -9.2°
